Location: *
(57.8420°S, 159.8600°W)
Time: 12:53:27
(UTC+00:00)

Cosmos 1937 Rocket - Pass Details

Date: 18 May 2021
Orbit: 745 x 781 km, 74.0° (Epoch: 22 June)

Event Time Altitude Azimuth Distance (km) Brightness Sun altitude
Rises 03:43:18 0° 213° (SSW) 3,279 6.9 -9.8°
Reaches altitude 10° 03:45:59 10° 202° (SSW) 2,342 6.0 -10.1°
Maximum altitude 03:50:41 31° 140° (SE) 1,346 4.3 -10.7°
Enters shadow 03:55:10 11° 79° (E) 2,259 5.4 -11.3°
